Location: Melbourne
(37.8170°S, 144.9670°E)
Time: 09:03:30
(UTC+11:00)

Daily predictions for brighter satellites

Satellite Brightness Start Highest point End
(mag) Time Altitude Azimuth Time Altitude Azimuth Time Altitude Azimuth
MSX 3.9 19:42:08 10° SSE 19:48:00 81° ENE 19:53:47 10° N
Cosmos 1842 3.3 19:45:50 10° N 19:49:42 63° E 19:53:38 10° SSE
Cosmos 1821 Rocket 4.3 19:45:15 10° S 19:51:39 80° W 19:58:02 10° N
AQUARIUS 4.4 19:47:09 10° S 19:51:44 78° WSW 19:56:15 10° NNW
Cosmos 1805 3.7 19:50:12 10° S 19:53:58 40° E 19:57:41 10° NNE
Cosmos 1943 4.0 19:50:59 10° NNE 19:55:42 28° ENE 20:00:28 10° SE
IDEFIX/ARIANE 42P 3.7 19:52:32 10° S 19:57:41 51° WSW 20:02:47 10° NNW
SJ-6B 4.5 19:57:47 10° ESE 20:00:01 14° E 20:02:12 10° NE
Meteor 1-29 3.7 19:57:47 10° NE 20:01:02 34° ESE 20:04:18 10° S
Cosmos 2098 Rocket 3.9 19:57:10 10° SSE 20:01:05 34° E 20:05:52 10° NE
Exosat Rocket 4.2 19:56:20 10° NNW 20:01:17 63° WSW 20:07:05 10° SSE
Abrixas rocket 4.1 20:00:03 10° N 20:02:07 15° NE 20:03:51 11° E
Cosmos-2242 4.2 19:59:54 10° SSE 20:03:24 23° ESE 20:06:51 10° NE
Hubble Space Telescope 2.6 20:01:18 10° NW 20:04:25 20° N 20:07:33 10° NE
Cosmos 1470 4.1 20:03:49 10° SSE 20:06:57 21° ESE 20:10:04 10° NE
Cosmos 1605 Rocket 3.9 20:03:35 10° S 20:09:46 77° E 20:15:55 10° N
Intercosmos 25 4.2 20:06:01 10° S 20:10:25 67° E 20:17:27 10° NNE
SL-16 R/B 4.1 20:07:52 10° WNW 20:12:57 33° WSW 20:18:06 10° S
Cosmos 1825 Rocket 3.8 20:10:39 10° N 20:15:02 77° W 20:19:28 10° S
CZ-2C R/B 4.3 20:11:20 10° S 20:15:25 31° WSW 20:19:29 10° NW
Cosmos 292 Rocket 4.4 20:11:45 10° NNE 20:16:03 34° E 20:20:24 10° SE
Cosmos 1758 3.2 20:15:59 10° S 20:20:05 73° E 20:24:06 10° NNE
METEOR-M 4.4 20:15:03 10° SSE 20:20:12 44° E 20:25:17 10° N
Tiangong 2 3.7 20:18:53 10° WNW 20:20:59 16° NW 20:23:03 10° N
Meteor 2-5 Rocket 4.4 20:18:19 10° NNE 20:23:36 34° E 20:28:56 10° SSE
Cosmos 1680 Rocket 4.4 20:23:42 10° NNE 20:27:58 26° E 20:32:15 10° SE
Cosmos 1953 2.3 20:25:53 10° S 20:30:02 88° ESE 20:34:09 10° N
Cosmos 1733 3.7 20:26:52 10° S 20:30:28 36° E 20:32:59 17° NE
ATLAS CENTAUR R/B 3.1 20:30:06 10° NNE 20:31:04 14° NE 20:31:04 14° NE
OTV 4 0.6 20:30:30 10° WNW 20:33:28 55° NNE 20:34:29 34° ENE
Cosmos 2061 Rocket 4.3 20:29:24 10° S 20:35:24 44° ESE 20:41:23 10° NNE
Cosmos 2369 Rocket 2.5 20:32:46 10° SSW 20:38:23 49° ESE 20:42:17 19° NE
Cosmos 1538 Rocket 4.1 20:33:18 10° NNW 20:38:31 80° WSW 20:43:51 10° SSE
Helios 1B rocket 3.3 20:34:37 10° N 20:38:39 53° W 20:42:45 10° SSW
Cosmos 1727 Rocket 4.4 20:34:57 10° NNW 20:41:06 68° W 20:47:25 10° S
Meteor 2-15 Rocket 4.4 20:36:38 10° N 20:42:43 76° E 20:48:52 10° S
GPS 2-04 Rocket1 2.9 20:39:36 10° WNW 20:43:38 64° N 20:45:20 33° ENE
ERBS 2.3 20:40:32 10° SW 20:44:03 89° SE 20:45:27 34° NE
Cosmos 1842 Rocket 4.4 20:41:46 10° SSE 20:45:48 30° ESE 20:46:11 30° E
Meteor 1-4 Rocket 4.0 20:42:51 10° SSW 20:46:23 40° W 20:49:48 10° NNW
Cosmos 923 Rocket 4.1 20:41:47 10° N 20:46:55 53° ENE 20:52:04 10° SSE
USA 234 3.3 20:43:07 10° SE 20:49:41 61° NE 20:56:10 10° NNW
ATLAS 2AS CENTAUR R/B 2.5 20:44:03 10° NNW 20:50:35 89° WSW 20:56:46 10° SSE
ATLAS 3B R/B 3.1 20:50:44 10° SSW 20:57:49 50° SE 21:01:15 30° ENE
FengYun 1-2 T 4.4 20:53:20 10° SSE 20:58:40 47° E 21:03:58 10° N
Cosmos 1000 Rocket 4.4 20:54:06 10° N 21:00:23 79° E 21:06:49 10° S
Cosmos 1271 Rocket 3.0 20:56:50 10° SSW 21:00:43 68° W 21:04:15 12° N
FREGAT/IRIS 2.9 20:58:26 10° S 21:01:36 69° WSW 21:04:42 10° NNW
Cosmos 1378 4.4 21:03:52 29° SSE 21:03:52 29° SSE 21:05:57 10° SSE
GP-B 3.3 20:58:50 10° SSE 21:03:14 49° E 21:03:34 48° ENE
FENGYUN 3A 3.6 20:59:42 10° SSE 21:05:09 62° E 21:10:32 10° N
Resurs 01 Rocket 3.0 21:00:59 10° SSE 21:02:57 23° SE 21:02:57 23° SE
ALOS 2.1 21:02:20 10° SSE 21:07:06 73° ENE 21:11:47 10° N
Cosmos 1459 Rocket 4.0 21:01:51 10° S 21:08:20 88° E 21:14:45 10° N
Cosmos 2123 Rocket 4.1 21:02:44 10° NNE 21:08:42 49° E 21:14:41 10° SSE
CZ-4C R/B 3.3 21:05:24 10° SW 21:10:32 38° WNW 21:15:12 10° N
Cosmos 2173 Rocket 3.9 21:04:54 10° S 21:11:06 89° WNW 21:17:13 10° N
Cosmos 1241 Rocket 4.3 21:05:02 10° NNW 21:11:15 77° ENE 21:17:27 10° SSE
GEOS 3 Rocket 4.0 21:13:18 25° NNE 21:16:23 65° WNW 21:21:42 10° SW
Cosmos 389 Rocket 4.2 21:12:54 10° S 21:14:32 24° S 21:14:32 24° S
Cosmos 1707 3.6 21:16:17 10° NNW 21:20:04 50° W 21:23:54 10° S
Cosmos 1943 Rocket 2.2 21:15:26 10° SSW 21:20:55 55° ESE 21:21:17 54° E
Cosmos 2112 Rocket 3.8 21:19:42 10° NNW 21:24:53 78° ENE 21:30:09 10° SSE
DELTA 2 R/B (1) 3.6 21:19:39 10° WSW 21:25:17 70° NNW 21:26:13 58° NNE
Meteor 2-1 Rocket 4.4 21:19:58 10° S 21:25:49 52° ESE 21:25:52 52° E
BREEZE-M DEB (TANK) 3.9 21:23:44 10° SSW 21:25:19 23° S 21:25:19 23° S
Meteor 1-16 Rocket 4.1 21:25:16 10° S 21:30:45 83° W 21:32:49 40° N
SJ-6B 4.3 21:31:06 10° S 21:34:50 36° WSW 21:38:27 10° NW
Cosmos 2016 Rocket 4.2 21:35:40 10° SSW 21:42:05 71° W 21:45:54 26° N
USA 238 DEB 3.7 21:36:09 10° SSW 21:43:15 65° SE 21:43:54 62° E
USA 238 3.7 21:36:15 10° SSW 21:43:20 64° SE 21:43:58 61° E
Hubble Space Telescope 3.2 21:41:53 10° NW 21:43:08 16° NW 21:43:08 16° NW
Cosmos 1725 Rocket 3.9 21:41:52 10° S 21:48:18 89° ESE 21:49:12 69° N
Cosmos 1607 3.8 21:44:20 10° SSW 21:50:37 82° WNW 21:50:59 78° N
Meteor 1-24 Rocket 4.3 21:52:45 10° NNW 21:58:38 61° WSW 22:04:42 10° S
Cosmos 2369 Rocket 4.3 22:17:46 10° SW 22:21:59 21° W 22:24:08 17° NW
COSMOS 2455 4.5 22:23:42 10° SSW 22:26:32 26° S 22:26:32 26° S
USA 234 4.3 22:28:54 23° SSE 22:32:26 41° SSW 22:38:31 10° W
Resurs 01 Rocket 4.3 22:38:21 10° SSW 22:40:29 17° SW 22:40:29 17° SW
ATLAS 3B R/B 4.0 22:41:49 10° SW 22:48:21 35° WNW 22:48:32 35° WNW
